This demonstration page uses our WeatherBlox Daily Observations layout. Learn more.

Hourly Observations for December 17, 2017

Temp ( °F °C ) Dew Point ( °F °C ) Humidity (%) Winds ( mph kmh ) Pressure ( in mb ) Visibility ( mi km ) Precip ( " mm )
12:53 am 00:53 Clear 27 -2.8 24 -4.4 89 89 Calm 30.19 1023 10 16.0934 0 0
1:53 am 01:53 Clear 28 -2.2 26 -3.3 92 92 Calm 30.19 1022 10 16.0934 0 0
2:53 am 02:53 Clear 29 -1.7 27 -2.8 92 92 Calm 30.19 1022 10 16.0934 0 0
3:53 am 03:53 Clear 30 -1.1 27 -2.8 88 88 ESE 3 6 30.19 1023 10 16.0934 0 0
4:53 am 04:53 Clear 34 1.1 29 -1.7 82 82 ESE 5 7 30.19 1022 10 16.0934 0 0
5:53 am 05:53 Clear 32 0 30 -1.1 92 92 Calm 30.19 1022 10 16.0934 0 0
6:53 am 06:53 Clear 32 0 29 -1.7 88 88 ESE 3 6 30.19 1022 10 16.0934 0 0
7:53 am 07:53 Sunny 35 1.7 30 -1.1 82 82 Calm 30.21 1023 10 16.0934 0 0
8:53 am 08:53 Sunny 37 2.8 31 -0.6 79 79 ESE 5 7 30.21 1023 10 16.0934 0 0
9:53 am 09:53 Cloudy 39 3.9 32 0 76 76 ESE 3 6 30.19 1022 10 16.0934 0 0
10:53 am 10:53 Cloudy 41 5 32 0 70 70 VRB 3 6 30.19 1022 10 16.0934 0 0
11:53 am 11:53 Cloudy 43 6.1 34 1.1 71 71 E 5 7 30.14 1021 10 16.0934 0 0.0254
12:53 pm 12:53 Cloudy 44 6.7 33 0.6 65 65 Calm 30.16 1022 10 16.0934 0 0
1:53 pm 13:53 Cloudy 45 7.2 33 0.6 63 63 Calm 30.15 1021 10 16.0934 0 0
2:53 pm 14:53 Cloudy 46 7.8 32 0 58 58 Calm 30.12 1020 10 16.0934 0 0
3:53 pm 15:53 Cloudy 47 8.3 33 0.6 59 59 Calm 30.12 1020 10 16.0934 0 0
4:53 pm 16:53 Cloudy 46 7.8 34 1.1 63 63 Calm 30.11 1020 10 16.0934 0 0
5:53 pm 17:53 Cloudy 43 6.1 33 0.6 68 68 Calm 30.12 1020 10 16.0934 0 0
6:53 pm 18:53 Cloudy 45 7.2 33 0.6 63 63 Calm 30.12 1020 10 16.0934 0 0
7:53 pm 19:53 Cloudy 44 6.7 33 0.6 65 65 Calm 30.12 1020 10 16.0934 0 0
8:53 pm 20:53 Cloudy 45 7.2 33 0.6 63 63 SW 5 7 30.14 1021 10 16.0934 0 0
9:53 pm 21:53 Cloudy 44 6.7 34 1.1 68 68 SW 6 9 30.14 1021 10 16.0934 0 0
10:24 pm 22:24 Cloudy 43 6.1 35 1.7 74 74 SSW 3 6 30.12 1020 10 16.0934 0 0
10:40 pm 22:40 Mostly Cloudy 42 5.6 34 1.1 73 73 Calm 30.12 1020 10 16.0934 0 0
10:53 pm 22:53 Mostly Cloudy 41 5 34 1.1 76 76 Calm 30.14 1021 10 16.0934 0 0
11:01 pm 23:01 Mostly Cloudy 40 4.4 34 1.1 79 79 Calm 30.12 1020 10 16.0934 0 0
11:40 pm 23:40 Partly Cloudy 35 1.7 32 0 89 89 Calm 30.15 1021 10 16.0934 0 0
11:53 pm 23:53 Partly Cloudy 34 1.1 31 -0.6 89 89 Calm 30.12 1020 10 16.0934 0 0

Powered by AerisWeather